This is the latest recevied weather packets stored in our database for station/object N7ZAP. If no packets are shown the sender has not sent any weather packets the latest 10 day(s).
| Time | Temp. | Humidity | Pressure | Rain* | Wind** | Luminosity | Snow |
|---|---|---|---|---|---|---|---|
| 1788077010 | 23.33° C | 50% | 1022.3 hPa | 0 mm | - | - | - |
| 1788076708 | 23.33° C | 49% | 1022.1 hPa | 0 mm | - | - | - |
| 1788076404 | 23.33° C | 48% | 1022.3 hPa | 0 mm | - | - | - |
| 1788076099 | 23.33° C | 47% | 1022.3 hPa | 0 mm | - | - | - |
| 1788075795 | 23.33° C | 48% | 1022 hPa | 0 mm | - | - | - |
| 1788075491 | 22.78° C | 49% | 1021.9 hPa | 0 mm | - | - | - |
| 1788075186 | 23.33° C | 50% | 1022.3 hPa | 0 mm | - | - | - |
| 1788074881 | 23.33° C | 50% | 1022.3 hPa | 0 mm | - | - | - |
| 1788074576 | 23.33° C | 49% | 1022.1 hPa | 0 mm | - | - | - |
| 1788074276 | 23.33° C | 49% | 1022.4 hPa | 0 mm | - | - | - |
| 1788073976 | 23.89° C | 47% | 1022.6 hPa | 0 mm | - | - | - |
| 1788073674 | 23.33° C | 48% | 1022.4 hPa | 0 mm | - | - | - |
| 1788073369 | 23.33° C | 51% | 1022.6 hPa | 0 mm | - | - | - |
| 1788073068 | 23.33° C | 51% | 1022.6 hPa | 0 mm | - | - | - |
| 1788072764 | 23.33° C | 51% | 1022.7 hPa | 0 mm | - | - | - |
| 1788072462 | 23.33° C | 51% | 1023 hPa | 0 mm | - | - | - |
| 1788072158 | 23.33° C | 52% | 1022.8 hPa | 0 mm | - | - | - |
| 1788071858 | 22.78° C | 52% | 1023 hPa | 0 mm | - | - | - |
| 1788071557 | 22.78° C | 53% | 1023.2 hPa | 0 mm | - | - | - |
| 1788071251 | 22.78° C | 53% | 1023.4 hPa | 0 mm | - | - | - |
| 1788070947 | 22.78° C | 55% | 1023.1 hPa | 0 mm | - | - | - |
| 1788070646 | 22.78° C | 56% | 1023.3 hPa | 0 mm | - | - | - |
| 1788070342 | 22.22° C | 56% | 1023.4 hPa | 0 mm | - | - | - |
| 1788070039 | 22.22° C | 57% | 1023.2 hPa | 0 mm | - | - | - |
| 1788069735 | 22.22° C | 57% | 1023.5 hPa | 0 mm | - | - | - |
* Rain latest hour (hover to see other rain measurements)
** Current wind speed in m/s (hover to see current wind gust speed)